Temperature
14 15 15 15 15 15 15 15 15 15 15 15 15 15 15 15 15 15 15 15 15 15 15 15 15 15 15 15 15 15 15 15 15 15 15 15 14 14 14 14 14 14 14
14 14 14 14 15 15 15 15 15 15 15 15 15 15 15 15 15 15 15 15 15 15 15 15 15 15 15 15 14 15 15 14 14 14 14 14 14 14 14 14 14 14 14
14 14 14 14 14 15 15 15 15 15 15 15 15 15 15 15 15 15 15 15 15 14 14 14 14 14 14 14 14 14 14 14 14 14 14 14 14 14 14 14 14 14 14
14 14 14 14 14 14 14 14 15 15 15 15 15 15 15 15 15 14 14 14 14 14 14 14 14 14 14 14 14 14 14 14 14 14 14 14 14 14 14 14 14 14 13
13 13 14 14 14 14 14 14 14 14 14 14 14 14 14 14 14 14 14 14 14 14 14 14 14 14 14 14 14 14 14 14 14 14 14 14 14 13 14 14 14 13 13
13 13 13 13 13 14 14 14 14 14 14 14 14 14 14 14 14 14 14 14 14 14 14 14 14 14 14 14 14 14 14 14 14 14 14 14 13 13 14 14 13 13 13
13 13 13 13 13 13 13 13 14 14 14 14 14 14 14 14 14 14 14 14 14 14 14 14 14 14 14 14 13 13 13 13 13 14 13 13 13 13 13 13 13 13 13
12 12 12 13 13 13 13 13 13 13 13 13 14 14 14 14 14 14 14 14 14 14 14 13 13 13 13 13 13 13 13 13 13 13 13 13 13 13 13 13 13 13 13
12 12 12 12 12 12 13 13 13 13 13 13 13 13 13 13 14 14 14 13 13 13 13 13 13 13 13 13 13 13 13 13 13 13 13 13 13 13 13 13 13 13 13
11 11 11 11 12 12 12 12 12 13 13 13 13 13 13 13 13 13 13 13 13 13 13 13 13 13 13 13 13 13 13 13 13 13 13 13 13 13 13 13 13 13 13
10 11 11 11 11 11 11 12 12 12 12 12 12 12 12 13 13 13 13 13 13 13 13 13 13 13 13 13 13 12 12 12 12 12 12 12 12 13 13 13 13 13 13
10 10 10 10 10 11 11 11 11 11 11 12 12 12 12 12 12 12 12 12 12 13 13 12 12 12 12 12 12 12 12 12 12 12 12 12 12 12 12 13 13 13 13
8 9 9 9 9 10 10 10 11 11 11 11 11 11 11 12 12 12 12 12 12 12 12 12 12 12 12 12 12 12 12 12 12 12 12 12 12 12 12 12 12 12 12
8 8 8 8 9 9 9 10 10 10 10 10 10 10 11 11 11 11 12 12 12 12 12 12 12 12 12 12 12 12 12 12 12 12 12 12 12 12 12 12 12 12 12
7 7 7 8 8 8 9 9 9 9 10 10 10 10 10 10 11 11 11 11 11 11 11 12 12 12 12 11 11 11 12 12 12 12 12 12 12 12 12 12 12 12 12
6 7 7 7 7 8 8 8 8 9 9 9 9 10 10 10 10 10 10 11 11 11 11 11 11 11 11 11 11 11 11 11 11 11 11 11 12 12 12 12 12 12 12
6 6 6 7 7 7 7 7 8 8 8 8 9 9 9 9 10 10 10 10 10 10 10 11 11 11 11 11 11 11 11 11 11 11 11 11 11 11 11 11 11 11 11
5 5 6 6 6 6 7 7 7 7 8 8 8 8 9 9 9 9 9 10 10 10 10 10 10 10 10 10 10 10 10 11 11 11 11 11 11 11 11 11 11 11 11
5 5 5 5 6 6 6 6 7 7 7 7 7 8 8 8 9 9 9 9 9 9 9 9 9 9 10 10 10 10 10 10 10 10 10 10 11 11 11 11 11 11 10
4 4 4 5 5 5 5 6 6 6 6 7 7 7 8 8 8 8 8 8 8 9 9 9 9 9 9 9 9 9 10 10 10 10 10 10 10 10 10 10 10 10 10
4 4 4 4 4 4 5 5 5 6 6 6 6 7 7 7 8 8 8 8 8 8 8 8 8 8 8 8 9 9 9 9 9 10 10 10 10 10 10 10 10 10 10
3 3 3 3 3 4 4 4 4 4 5 5 5 6 6 7 7 7 7 8 8 8 8 8 8 8 8 8 8 8 8 8 9 9 9 9 9 9 9 9 9 9 9
2 2 2 2 3 3 3 3 3 4 4 4 5 5 6 6 6 7 7 7 7 7 7 7 7 8 7 8 8 7 7 8 8 8 9 9 9 9 9 9 9 9 9
1 1 2 2 2 2 2 2 2 2 3 3 4 4 5 5 6 6 6 6 7 7 7 7 7 7 7 7 7 7 7 8 7 7 8 8 8 9 9 9 9 9 9
0 1 1 1 1 2 1 1 2 2 2 2 3 3 4 5 5 5 5 6 6 6 6 6 6 6 6 7 7 7 7 7 7 7 7 7 8 8 8 8 8 8 8
0 0 0 1 1 1 1 1 1 1 1 2 2 2 3 4 4 5 5 5 5 5 6 6 6 6 6 6 6 6 7 7 7 7 7 7 7 8 8 8 8 8 8
Wind_Speed
2 3 2 4 7 9 10 11 12 11 12 12 13 14 14 14 15 15 15 15 15 15 15 16 16 16 17 17 17 18 18 18 18 18 17 17 17 18 18 18 17 17 19
2 0 3 5 7 9 10 11 11 11 11 12 12 13 13 14 14 14 14 14 14 14 15 15 15 16 16 16 16 17 17 17 17 17 16 16 17 17 17 17 16 16 18
3 2 4 6 8 9 10 11 11 11 11 11 12 12 12 13 13 13 13 13 13 13 14 14 15 15 15 15 15 16 16 15 15 15 14 13 15 16 16 17 17 17 17
4 4 4 6 8 9 10 10 11 11 11 11 11 12 12 12 12 12 12 13 13 13 13 13 14 14 14 14 15 15 15 15 14 14 12 11 12 14 15 16 16 16 16
6 6 5 8 8 9 9 9 10 10 11 11 11 11 11 11 11 11 11 12 13 13 13 13 13 13 13 13 13 14 14 14 13 13 12 12 11 13 14 14 15 15 15
6 7 7 9 9 9 9 9 9 10 10 10 10 10 11 11 11 11 11 12 12 12 12 12 12 12 12 12 13 14 13 13 13 12 11 11 11 13 13 13 13 14 14
6 7 7 10 10 10 9 8 9 9 9 10 10 10 10 11 11 11 11 11 11 12 12 11 11 12 12 12 13 12 12 13 12 11 10 10 11 12 12 13 13 13 13
7 7 7 8 9 9 9 9 8 9 9 9 9 9 9 10 10 11 11 10 10 11 11 10 10 11 11 12 12 12 12 11 10 10 9 9 11 11 11 12 12 12 12
8 8 8 8 8 8 9 9 9 8 8 9 9 9 9 9 9 10 10 10 10 10 10 10 10 10 11 11 11 11 11 11 10 8 8 9 10 11 11 11 11 11 11
8 8 8 8 8 7 7 8 9 8 8 8 8 9 9 9 8 8 9 9 9 9 9 9 9 9 10 10 11 10 10 10 10 8 7 9 10 11 10 10 10 10 11
7 6 8 8 7 7 6 6 7 7 7 7 7 7 7 7 7 7 7 8 8 8 8 8 8 9 9 9 10 9 8 8 8 7 7 9 9 10 10 10 10 10 10
5 5 6 7 7 6 5 5 5 5 5 5 5 6 5 6 6 6 7 7 7 7 7 7 7 7 8 7 7 7 7 7 7 6 6 8 9 9 9 9 9 10 10
2 3 5 6 6 6 5 4 4 4 4 4 4 5 5 5 5 5 5 5 6 6 5 6 6 6 6 6 6 6 6 7 6 5 5 7 7 8 8 8 8 9 9
2 3 3 6 6 6 5 4 3 3 2 2 2 3 4 3 3 3 3 4 4 4 3 4 4 4 5 6 6 5 5 5 5 5 5 6 6 6 7 7 7 8 8
2 3 3 5 5 5 4 4 3 2 2 1 1 1 3 3 2 2 2 3 4 4 4 3 3 3 3 4 5 5 4 4 5 6 5 6 6 6 7 7 7 7 7
3 3 3 3 5 5 4 4 3 3 2 1 1 1 2 2 2 2 2 2 3 4 4 4 3 2 2 3 3 4 4 5 5 5 5 5 6 6 6 6 6 6 6
3 3 3 3 4 4 4 4 3 3 2 1 2 1 1 2 3 2 2 2 2 4 4 3 3 3 2 1 1 3 4 4 5 4 5 5 6 6 6 5 5 6 6
4 4 4 4 4 4 4 4 3 3 3 2 2 2 2 2 3 2 2 2 3 4 3 2 2 1 1 1 1 1 2 3 4 4 5 6 6 6 6 5 5 5 5
4 4 4 4 3 4 4 4 3 3 3 3 2 2 3 2 3 2 2 3 4 3 2 3 2 2 2 1 1 1 1 2 3 4 4 5 6 6 6 5 5 5 5
4 4 4 4 4 4 4 3 3 3 3 4 3 3 4 2 2 2 2 3 4 2 2 2 2 2 2 2 1 0 1 1 2 3 4 5 6 6 6 6 5 5 5
5 6 5 4 4 3 2 2 2 3 3 4 4 4 4 3 2 2 2 3 4 4 4 4 2 3 2 1 1 1 2 1 1 2 2 3 4 5 6 6 6 5 5
4 5 5 5 4 3 2 2 2 3 3 4 5 5 5 4 2 2 2 2 3 3 4 4 3 3 2 3 2 2 0 1 1 2 2 3 3 3 4 5 6 6 5
4 4 5 5 5 4 3 2 3 3 3 3 4 4 5 5 3 3 3 3 3 4 5 5 5 5 4 3 3 3 3 3 1 2 2 3 3 2 3 4 5 6 6
4 4 4 4 5 5 3 2 2 2 4 5 4 4 5 5 4 3 3 3 3 3 4 5 4 3 5 5 3 2 2 2 2 1 2 2 3 4 3 3 5 6 6
4 4 4 5 5 5 4 2 2 3 4 4 4 4 4 5 4 3 3 3 3 3 3 4 4 4 4 5 4 2 1 1 2 2 3 3 2 3 4 4 4 5 7
4 4 4 4 5 5 4 3 2 3 5 5 5 4 4 4 4 3 3 3 4 4 4 4 5 5 5 5 4 3 3 3 2 3 3 3 3 3 3 3 4 5 7
Wind_Direction
319 324 140 109 99 99 100 98 97 95 95 97 97 97 98 99 100 100 100 100 98 96 93 92 92 92 92 91 90 88 86 85 84 83 82 82 85 87 87 85 83 82 84
324 341 132 108 102 100 100 99 97 96 97 97 98 100 101 101 101 101 101 100 99 97 96 94 93 93 92 92 92 91 89 87 86 83 80 79 82 86 87 87 86 86 86
39 71 107 106 101 100 100 100 97 97 99 100 100 102 102 103 102 103 103 102 100 99 98 97 95 95 93 92 93 93 91 88 87 85 82 80 83 87 88 89 89 89 88
53 61 82 92 99 97 100 102 100 98 100 101 100 100 100 103 104 105 105 103 102 101 102 101 99 97 95 94 94 94 91 88 85 82 80 80 84 89 90 91 90 90 89
50 51 63 78 89 91 93 101 104 102 100 101 101 100 100 100 102 108 108 105 104 103 104 104 101 98 97 96 96 95 92 90 85 81 79 80 85 90 91 93 93 92 91
51 54 58 66 72 83 88 93 101 105 103 102 103 102 102 101 101 104 108 107 106 107 105 106 104 100 96 94 97 97 93 92 85 82 82 84 88 92 91 95 96 95 94
58 58 63 62 64 66 73 88 94 99 104 105 104 104 104 103 102 102 104 106 108 109 109 107 107 103 98 97 100 99 94 94 88 84 83 89 94 95 93 95 98 99 98
67 58 66 61 59 60 62 66 87 92 93 101 105 104 106 105 104 105 103 104 109 111 111 109 106 104 100 100 101 99 97 95 92 86 86 92 96 96 96 98 98 102 102
63 53 53 57 57 59 59 62 62 84 92 95 101 103 103 104 104 105 105 104 105 110 112 109 105 100 101 101 102 98 97 95 93 91 92 97 100 98 98 99 101 103 105
57 46 42 46 49 50 58 63 58 66 87 93 97 102 108 108 108 108 105 106 107 107 110 109 104 99 97 102 106 101 100 93 92 92 97 104 104 102 101 101 100 102 104
50 39 35 34 37 43 56 59 63 66 74 93 100 101 105 109 111 112 109 108 112 111 109 110 106 101 95 97 103 101 100 97 97 95 104 115 113 108 103 102 101 106 107
41 32 25 25 26 34 46 53 63 66 65 76 97 100 104 111 117 119 123 120 116 114 111 108 111 104 97 98 98 96 101 105 100 101 111 122 118 113 110 108 107 107 108
63 33 22 17 22 28 30 43 48 50 53 56 82 99 105 105 110 116 119 121 120 117 109 108 106 106 106 107 105 103 104 108 109 107 116 127 125 121 120 118 115 115 112
57 29 20 17 18 22 26 28 40 33 33 34 41 105 111 102 99 118 122 130 129 128 112 114 107 109 115 118 117 112 112 115 120 122 123 127 132 130 130 129 126 124 122
46 16 8 14 20 17 17 15 19 9 20 18 13 130 137 128 129 141 142 150 144 141 132 122 119 103 114 125 126 121 122 126 127 131 133 136 136 137 136 139 135 135 133
26 5 360 14 18 13 4 353 357 353 345 344 308 279 169 168 164 159 162 160 155 152 153 151 141 121 119 122 124 130 136 143 137 138 141 148 147 145 140 140 139 141 145
23 8 6 19 13 5 356 346 350 338 325 322 291 270 223 192 189 178 187 188 178 169 160 150 139 118 120 113 136 142 144 151 150 149 151 149 153 153 152 151 150 148 150
28 14 7 10 3 356 353 345 341 334 334 308 291 285 273 215 202 184 199 204 187 173 158 153 161 149 163 150 168 188 157 159 166 166 162 159 158 163 164 163 162 166 172
27 14 6 8 3 354 350 345 344 342 339 326 310 313 301 247 210 194 208 204 186 173 169 180 181 174 177 175 181 196 172 172 179 174 171 172 169 168 168 172 175 179 184
22 17 7 7 2 357 353 350 356 353 347 340 326 320 311 275 233 213 207 201 189 185 192 190 181 180 179 174 168 62 267 210 185 179 184 175 177 176 176 178 181 192 198
21 17 5 3 357 359 356 345 338 325 318 321 320 311 312 298 256 230 223 212 206 200 199 189 179 176 176 150 99 37 342 279 202 199 183 169 175 181 182 185 187 194 204
15 9 359 359 348 346 330 318 309 304 298 305 309 315 307 298 275 246 227 220 219 207 197 196 176 175 187 173 153 143 133 295 286 243 209 193 186 177 184 193 193 198 205
2 354 349 346 343 339 341 344 341 339 330 320 318 316 315 302 281 269 251 236 225 210 200 202 194 181 189 205 188 168 170 212 246 265 243 213 197 195 208 203 200 205 207
338 339 343 342 341 342 340 336 322 318 309 305 300 300 310 312 296 284 272 252 237 228 208 203 200 199 184 199 213 215 203 178 178 222 260 246 221 213 215 220 215 212 209
333 341 340 344 343 343 339 320 312 314 302 308 305 302 306 317 309 300 282 263 249 240 222 216 211 208 199 200 204 214 225 216 193 193 230 242 249 231 219 219 215 213 212
339 347 344 344 341 344 338 326 315 307 305 310 309 306 310 310 298 303 300 281 260 249 233 231 219 217 214 211 212 211 208 196 199 195 216 227 239 250 236 215 209 215 218
Height
1540 1541 1541 1543 1544 1544 1544 1545 1545 1545 1546 1546 1546 1547 1547 1548 1548 1548 1549 1549 1549 1549 1549 1550 1550 1550 1550 1550 1550 1550 1550 1551 1551 1551 1551 1551 1551 1550 1550 1550 1550 1550 1551
1540 1541 1541 1543 1544 1545 1545 1545 1545 1546 1546 1547 1547 1548 1548 1549 1549 1549 1550 1550 1550 1550 1551 1551 1551 1551 1551 1551 1552 1552 1552 1552 1552 1553 1553 1553 1553 1553 1552 1552 1553 1553 1553
1540 1541 1541 1543 1544 1545 1545 1546 1546 1546 1547 1547 1548 1549 1549 1549 1550 1550 1551 1551 1551 1551 1552 1552 1552 1552 1552 1552 1553 1553 1553 1554 1554 1554 1554 1554 1554 1554 1554 1554 1554 1554 1554
1540 1541 1541 1543 1544 1545 1546 1546 1546 1547 1547 1548 1549 1549 1550 1550 1550 1551 1551 1552 1552 1552 1553 1553 1553 1553 1553 1554 1554 1554 1555 1555 1556 1556 1556 1556 1556 1556 1556 1556 1556 1556 1556
1540 1541 1542 1543 1544 1545 1546 1546 1547 1547 1548 1548 1549 1550 1550 1550 1551 1551 1552 1552 1553 1553 1553 1554 1554 1554 1555 1555 1555 1556 1556 1556 1557 1557 1557 1557 1557 1557 1557 1557 1557 1557 1558
1540 1541 1541 1543 1544 1545 1545 1546 1547 1547 1548 1549 1549 1550 1550 1551 1551 1551 1552 1553 1553 1554 1554 1555 1555 1555 1556 1556 1556 1557 1557 1558 1558 1558 1558 1558 1558 1559 1558 1558 1559 1559 1559
1540 1541 1541 1542 1543 1544 1545 1546 1546 1547 1548 1548 1549 1549 1550 1551 1551 1552 1552 1553 1554 1554 1555 1556 1556 1556 1557 1557 1557 1558 1558 1558 1559 1559 1559 1559 1560 1560 1559 1559 1560 1560 1560
1540 1541 1541 1542 1543 1543 1544 1545 1546 1547 1548 1548 1549 1549 1550 1551 1551 1552 1552 1553 1554 1555 1555 1556 1557 1557 1557 1558 1558 1559 1559 1559 1560 1560 1560 1560 1561 1561 1560 1560 1561 1561 1561
1540 1541 1541 1542 1542 1543 1544 1544 1545 1546 1547 1548 1549 1549 1550 1551 1551 1552 1552 1553 1554 1555 1555 1556 1557 1557 1558 1558 1559 1559 1560 1560 1560 1560 1561 1561 1561 1561 1561 1561 1561 1562 1562
1540 1540 1540 1541 1541 1542 1543 1543 1544 1545 1546 1547 1548 1549 1549 1550 1551 1551 1552 1553 1553 1554 1555 1556 1557 1557 1558 1558 1559 1560 1560 1560 1561 1561 1561 1561 1562 1562 1562 1562 1562 1562 1563
1539 1539 1540 1540 1541 1541 1542 1543 1543 1544 1545 1546 1547 1548 1549 1549 1550 1551 1551 1552 1553 1554 1555 1556 1556 1557 1558 1558 1559 1560 1560 1560 1561 1561 1561 1562 1562 1562 1562 1563 1563 1563 1563
1538 1538 1539 1539 1540 1540 1540 1541 1542 1543 1543 1544 1545 1546 1547 1548 1549 1550 1550 1551 1552 1553 1554 1555 1556 1556 1557 1558 1559 1559 1560 1560 1561 1561 1561 1562 1562 1562 1562 1563 1563 1563 1563
1537 1538 1538 1538 1538 1538 1538 1539 1540 1541 1542 1543 1544 1545 1546 1546 1547 1548 1549 1550 1551 1552 1553 1554 1555 1555 1556 1557 1558 1559 1559 1560 1560 1561 1561 1562 1562 1562 1562 1563 1563 1563 1564
1537 1537 1537 1537 1537 1537 1538 1538 1538 1539 1540 1541 1542 1543 1544 1545 1545 1546 1547 1548 1549 1550 1551 1552 1553 1554 1555 1556 1557 1558 1558 1559 1560 1560 1561 1561 1561 1562 1562 1562 1563 1563 1564
1536 1536 1536 1536 1536 1536 1536 1536 1537 1537 1538 1539 1540 1541 1542 1543 1544 1544 1545 1547 1548 1548 1549 1550 1552 1552 1554 1555 1556 1557 1557 1558 1559 1559 1560 1560 1561 1561 1562 1562 1563 1563 1563
1535 1534 1534 1535 1534 1534 1534 1535 1535 1535 1536 1537 1538 1538 1539 1540 1542 1542 1543 1545 1546 1546 1547 1548 1550 1551 1552 1553 1554 1555 1556 1557 1558 1558 1559 1559 1560 1560 1561 1561 1562 1562 1562
1533 1534 1533 1533 1533 1533 1533 1533 1533 1533 1534 1535 1535 1536 1537 1538 1539 1540 1541 1542 1543 1544 1545 1546 1548 1549 1550 1551 1552 1553 1554 1555 1556 1557 1557 1558 1559 1559 1560 1560 1561 1561 1561
1532 1532 1532 1532 1532 1531 1531 1530 1531 1531 1531 1532 1532 1533 1534 1535 1536 1537 1538 1539 1541 1542 1543 1544 1545 1546 1548 1549 1550 1551 1552 1553 1554 1555 1556 1557 1557 1558 1559 1559 1560 1560 1560
1531 1531 1530 1530 1529 1529 1529 1528 1528 1528 1528 1529 1529 1530 1531 1532 1533 1534 1535 1536 1538 1539 1540 1541 1542 1544 1545 1546 1547 1549 1550 1551 1552 1553 1554 1555 1555 1556 1557 1557 1558 1558 1559
1530 1529 1528 1527 1527 1527 1526 1525 1525 1526 1526 1526 1527 1527 1528 1529 1530 1531 1532 1533 1534 1536 1537 1538 1539 1541 1542 1543 1545 1546 1547 1548 1549 1550 1551 1552 1553 1554 1555 1555 1556 1556 1557
1528 1527 1527 1525 1525 1524 1523 1522 1521 1521 1522 1523 1524 1524 1524 1525 1526 1527 1528 1529 1531 1532 1533 1535 1536 1537 1539 1540 1542 1543 1544 1545 1546 1547 1548 1549 1550 1551 1552 1553 1553 1554 1554
1526 1525 1524 1523 1522 1522 1521 1520 1519 1519 1519 1519 1520 1520 1521 1521 1522 1524 1524 1525 1527 1528 1530 1531 1532 1533 1535 1537 1539 1539 1541 1543 1543 1544 1545 1546 1547 1548 1549 1550 1550 1551 1552
1524 1523 1522 1521 1520 1519 1518 1517 1516 1516 1515 1515 1515 1516 1516 1517 1518 1519 1520 1521 1522 1524 1525 1526 1528 1529 1531 1533 1536 1537 1538 1537 1538 1540 1541 1542 1543 1545 1546 1547 1547 1548 1549
1522 1521 1520 1519 1518 1516 1515 1514 1514 1512 1511 1511 1511 1512 1512 1513 1514 1514 1516 1517 1518 1519 1520 1522 1524 1525 1527 1528 1531 1533 1535 1535 1536 1535 1537 1538 1540 1541 1542 1543 1544 1545 1545
1521 1519 1518 1516 1515 1514 1513 1512 1511 1509 1509 1508 1508 1508 1508 1508 1509 1510 1511 1512 1513 1514 1516 1517 1519 1521 1522 1524 1525 1528 1530 1531 1532 1532 1532 1534 1535 1537 1538 1539 1540 1541 1542
1519 1517 1516 1514 1512 1511 1510 1509 1507 1506 1506 1505 1505 1503 1503 1504 1505 1505 1506 1507 1508 1509 1511 1512 1514 1516 1518 1520 1521 1523 1525 1526 1527 1528 1528 1529 1530 1532 1533 1535 1536 1537 1538